Regional Weather Roundup
Issued by NWS Cleveland, OH

Home | Current Version | Previous Version | Text Only | Print | Product List | Glossary Off
Versions: 1 2 3 4 5 6 7 8 9 10 11 12 13 14 15 16 17 18 19 20 21 22 23 24 25 26 27 28 29 30 31 32 33 34 35 36 37 38 39 40 41 42 43 44 45 46 47 48 49 50

000
ASUS41 KCLE 221800
RWRCLE
OHIO REGIONAL WEATHER ROUNDUP
NATIONAL WEATHER SERVICE WILMINGTON, OH
200 PM EDT WED OCT 22 2014

NOTE: "FAIR" INDICATES FEW OR NO CLOUDS BELOW 12,000 FEET WITH NO
SIGNIFICANT WEATHER AND/OR OBSTRUCTIONS TO VISIBILITY.

OHZ001>008-015>018-024>027-034-035-043-044-221900-
   NORTHWEST OHIO

CITY           SKY/WX    TMP DP  RH WIND       PRES   REMARKS
DEFIANCE       CLOUDY    48  39  71 N6        30.34F
FINDLAY        CLOUDY    50  41  71 N12       30.30F
TOLEDO EXPRESS CLOUDY    49  40  71 N8        30.32F
TOLEDO METCALF CLOUDY    52  39  61 N8        30.32F
LIMA           CLOUDY    48  41  76 N10       30.31F
$$

OHZ009>014-019>023-028>033-038-089-221900-
   NORTHEAST OHIO

CITY           SKY/WX    TMP DP  RH WIND       PRES   REMARKS
CLE-HOPKINS    CLOUDY    49  43  80 N13       30.28F
CLE-LAKEFRONT  CLOUDY    50  43  77 N13       30.26S
CUY CO. ARPT   CLOUDY    50  45  81 NE12      30.26F
LORAIN-ELYRIA    N/A    N/A N/A N/A MISG      30.28F
ASHTABULA      CLOUDY    48  42  80 N8G17     30.23F
AKRON-CANTON   CLOUDY    50  42  74 N13       30.22F
WOOSTER        NOT AVBL
MANSFIELD      CLOUDY    47  41  80 N10       30.26F
YOUNGSTOWN     PTSUNNY   50  43  77 N15G22    30.20F
$$

OHZ042-051>053-060>062-070>072-077>081-221900-
  SOUTHWEST OHIO

CITY           SKY/WX    TMP DP  RH WIND       PRES   REMARKS
CINC-COVINGTON PTSUNNY   55  40  56 VRB7      30.28F
CINC-LUNKEN    CLOUDY    53  41  63 N10       30.30F
HAMILTON       CLOUDY    53  42  66 NE7       30.31F
DAYTON         NOT AVBL
WRIGHT-PAT AFB CLOUDY    50  42  72 N9        30.29F
DAYTON GENERAL CLOUDY    50  41  71 N8        30.29F
WILMINGTON     CLOUDY    49  40  71 N9        30.28F
$$

OHZ036-037-039>041-045>050-054>059-063>069-073>076-082>088-221900-
  CENTRAL AND SOUTHEAST OHIO

CITY           SKY/WX    TMP DP  RH WIND       PRES   REMARKS
COLUMBUS       CLOUDY    49  41  74 N13G21    30.26F
OSU AIRPORT    CLOUDY    50  42  74 N9        30.26F
BOLTON FIELD   CLOUDY    52  43  71 N13       30.26F
RICKENBACK AFB NOT AVBL
NEWARK         CLOUDY    50  42  74 N12       30.25F
MARION         CLOUDY    49  41  74 N12       30.28F
LANCASTER      CLOUDY    50  42  74 N9        30.25F
ZANESVILLE     CLOUDY    49  42  77 N7        30.22F
NEW PHILLY     CLOUDY    51  43  74 N10       30.22F
$$



USA.gov is the U.S. government's official web portal to all federal, state and local government web resources and services.